Driggs, ID

3:21 AM MST on December 10, 2019 (GMT -0700)
Driggs

Weather History for KDIJ - November, 2019

Change the Weather History Date:

Friday, November 15, 2019

  Actual Average (KJAC) Record (KJAC)
Temperature  
Mean Temperature 42 °F -  
Max Temperature 55 °F 37 °F 60 °F (2016)
Min Temperature 30 °F 11 °F -10 °F (1978)
Degree Days  
Heating Degree Days 22    
Moisture  
Dew Point 25 °F    
Average Humidity 53    
Maximum Humidity 73    
Minimum Humidity 30    
Precipitation  
Precipitation 0.00 in - - ()
Sea Level Pressure  
Sea Level Pressure 30.17 in    
Wind  
Wind Speed 4 mph ()    
Max Wind Speed 13 mph    
Max Gust Speed -    
Visibility 10.0 miles    
Events      
Averages and records for this station are not official NWS values.
T = Trace of Precipitation, MM = Missing Value Source: Averaged Metar Reports

Daily Weather History Graph

Daily Weather History Graph

Search for Another Location

Airport or City:

Astronomy

Nov. 15, 2019 Rise Set
Actual Time 7:18 AM MST 4:58 PM MST
Civil Twilight 6:47 AM MST 5:29 PM MST
Nautical Twilight 6:12 AM MST 6:04 PM MST
Astronomical Twilight 5:38 AM MST 6:38 PM MST
Moon 7:34 PM MST (11/15) 10:21 AM MST (11/15)
Length of Visible Light 10h 42m
Length of Day
9h 40m
Waning Gibbous, 89% of the Moon is Illuminated
Nov 15
Waning Gibbous
Nov 19
Last Quarter
Nov 26
New
Dec 3
First Quarter
Dec 11
Full

Hourly Weather History & Observations

Time (MST) Temp. Windchill Dew Point Humidity Pressure Visibility Wind Dir Wind Speed Gust Speed Precip Events Conditions
12:56 AM 33.1 °F 30.0 °F 21.9 °F 64% 30.20 in 10.0 mi East 3.5 mph - N/A   Overcast
1:56 AM 32.0 °F - 24.1 °F 73% 30.21 in 10.0 mi Calm Calm - N/A   Overcast
2:56 AM 32.0 °F 24.8 °F 21.0 °F 64% 30.19 in 10.0 mi ENE 8.1 mph - N/A   Clear
3:56 AM 30.0 °F 25.2 °F 21.0 °F 69% 30.19 in 10.0 mi ESE 4.6 mph - N/A   Scattered Clouds
4:56 AM 32.0 °F 26.4 °F 21.9 °F 66% 30.20 in 10.0 mi Variable 5.8 mph - N/A   Overcast
5:56 AM 32.0 °F 24.8 °F 21.9 °F 66% 30.23 in 10.0 mi ESE 8.1 mph - N/A   Mostly Cloudy
6:56 AM 30.9 °F - 21.9 °F 69% 30.23 in 10.0 mi Calm Calm - N/A   Clear
7:56 AM 35.1 °F - 24.1 °F 64% 30.25 in 10.0 mi Calm Calm - N/A   Overcast
8:56 AM 42.1 °F 39.2 °F 27.0 °F 55% 30.21 in 10.0 mi NW 4.6 mph - N/A   Overcast
9:56 AM 44.1 °F - 25.0 °F 47% 30.20 in 10.0 mi Calm Calm - N/A   Partly Cloudy
10:56 AM 50.0 °F - 26.1 °F 39% 30.19 in 10.0 mi Calm Calm - N/A   Partly Cloudy
11:56 AM 53.1 °F - 27.0 °F 37% 30.16 in 10.0 mi West 10.4 mph - N/A   Scattered Clouds
12:56 PM 53.1 °F - 26.1 °F 35% 30.14 in 10.0 mi WNW 9.2 mph - N/A   Scattered Clouds
1:56 PM 55.9 °F - 25.0 °F 30% 30.12 in 10.0 mi SSW 12.7 mph - N/A   Clear
2:56 PM 53.1 °F - 25.0 °F 34% 30.12 in 10.0 mi SSW 9.2 mph - N/A   Partly Cloudy
3:56 PM 48.9 °F - 28.0 °F 44% 30.14 in 10.0 mi North 5.8 mph - N/A   Clear
4:56 PM 44.1 °F 40.1 °F 28.0 °F 53% 30.16 in 10.0 mi East 6.9 mph - N/A   Scattered Clouds
5:56 PM 42.1 °F 39.2 °F 28.0 °F 58% 30.18 in 10.0 mi ENE 4.6 mph - N/A   Overcast
6:56 PM 41.0 °F - 27.0 °F 57% 30.19 in 10.0 mi Calm Calm - N/A   Overcast
7:56 PM 43.0 °F 40.3 °F 25.0 °F 49% 30.17 in 10.0 mi SSE 4.6 mph - N/A   Overcast
8:56 PM 44.1 °F 40.8 °F 25.0 °F 47% 30.14 in 10.0 mi South 5.8 mph - N/A   Overcast
9:56 PM 45.0 °F 41.8 °F 25.0 °F 46% 30.13 in 10.0 mi South 5.8 mph - N/A   Overcast
10:56 PM 42.1 °F 38.4 °F 25.0 °F 51% 30.11 in 10.0 mi South 5.8 mph - N/A   Overcast
11:56 PM 43.0 °F 36.8 °F 24.1 °F 47% 30.08 in 10.0 mi South 11.5 mph - N/A   Overcast